GW5116 Weather Reports


Display with metric or nautical units.
time (UTC)temp
F
wind
direction
speed
MPH
gust
MPH
rain 1hr
in
rain 24hr
in
rain mn
in
humidity
%
barometer
mb
20260508082856 32 261 0.0 0.0 0.00 0.00 0.00 99 1018.3
20260508082354 33 261 0.0 0.0 0.00 0.00 0.00 99 1018.4
20260508081851 33 261 0.0 0.0 0.00 0.00 0.00 99 1018.3
20260508081348 33 271 0.0 0.0 0.00 0.00 0.00 99 1018.3
20260508080845 33 270 0.0 0.0 0.00 0.00 0.00 99 1018.2
20260508080343 33 277 0.0 0.0 0.00 0.00 0.00 99 1018.4
20260508075839 33 277 0.0 0.0 0.00 0.00 0.00 99 1018.2
20260508075336 33 277 0.0 0.0 0.00 0.00 0.00 99 1018.3
20260508074834 33 276 0.0 0.0 0.00 0.00 0.00 99 1018.1
20260508074331 34 276 0.0 0.0 0.00 0.00 0.00 99 1018.3
20260508073828 34 276 0.0 0.0 0.00 0.00 0.00 99 1018.1
20260508073326 33 276 0.0 0.0 0.00 0.00 0.00 99 1018.2
20260508072822 33 276 0.0 0.0 0.00 0.00 0.00 99 1018.1
20260508072319 34 276 0.0 0.0 0.00 0.00 0.00 99 1018.1
20260508071816 34 276 0.0 0.0 0.00 0.00 0.00 99 1018.3
20260508071314 33 276 0.0 0.0 0.00 0.00 0.00 99 1018.4
20260508070811 34 276 0.0 0.0 0.00 0.00 0.00 99 1018.5
20260508070310 34 276 0.0 0.0 0.00 0.00 0.00 99 1018.3
20260508065807 34 276 0.0 0.0 0.00 0.00 0.00 99 1018.2
20260508065307 34 279 0.0 0.0 0.00 0.00 0.00 99 1018.4
20260508064803 35 279 0.0 0.0 0.00 0.00 0.00 99 1018.2
20260508064300 35 278 0.0 0.0 0.00 0.00 0.00 99 1018.4
20260508063757 35 278 0.0 0.0 0.00 0.00 0.00 99 1018.2
20260508063256 34 278 0.0 0.0 0.00 0.00 0.00 99 1018.3
20260508062752 35 278 0.0 0.0 0.00 0.00 0.00 99 1018.4
20260508062250 35 278 0.0 0.0 0.00 0.00 0.00 99 1018.3
20260508061746 35 279 0.0 0.0 0.00 0.00 0.00 99 1018.3
20260508061243 35 279 0.0 0.0 0.00 0.00 0.00 99 1018.3
20260508060740 35 279 0.0 0.0 0.00 0.00 0.00 99 1018.4
20260508060238 35 279 0.0 0.0 0.00 0.00 0.00 99 1018.3
20260508055733 35 279 0.0 0.0 0.00 0.00 0.00 99 1018.1
20260508055231 35 279 0.0 0.0 0.00 0.00 0.00 99 1018.3
20260508054727 35 279 0.0 0.0 0.00 0.00 0.00 99 1018.1
20260508054225 36 279 0.0 0.0 0.00 0.00 0.00 99 1018.3
20260508053722 35 279 0.0 0.0 0.00 0.00 0.00 99 1018.2
20260508053219 35 279 0.0 0.0 0.00 0.00 0.00 99 1018.0
20260508052716 36 279 0.0 0.0 0.00 0.00 0.00 99 1018.3
20260508052213 36 279 0.0 0.0 0.00 0.00 0.00 99 1018.3
20260508051709 36 277 0.0 0.0 0.00 0.00 0.00 99 1018.2
20260508051205 35 275 0.0 0.0 0.00 0.00 0.00 99 1018.4
20260508050701 36 275 0.0 0.0 0.00 0.00 0.00 99 1018.5
20260508050159 36 275 0.0 0.0 0.00 0.00 0.00 99 1018.5
20260508045654 36 275 0.0 0.0 0.00 0.00 0.00 99 1018.2
20260508045153 36 275 0.0 0.0 0.00 0.00 0.00 99 1018.5
20260508044649 37 275 0.0 0.0 0.00 0.00 0.00 99 1018.1
20260508044146 37 275 0.0 0.0 0.00 0.00 0.00 99 1018.3
20260508043642 37 265 0.0 0.0 0.00 0.00 0.00 99 1018.3
20260508043140 37 265 0.0 0.0 0.00 0.00 0.00 99 1018.3
20260508042636 37 267 0.0 0.0 0.00 0.00 0.00 99 1018.2
20260508042134 37 266 0.0 0.0 0.00 0.00 0.00 98 1018.3
20260508041630 38 272 0.0 0.0 0.00 0.00 0.00 98 1018.1
20260508041127 38 272 0.0 0.0 0.00 0.00 0.00 98 1018.1
20260508040623 37 263 0.0 0.0 0.00 0.00 0.00 98 1018.2
20260508040121 38 263 0.0 0.0 0.00 0.00 0.00 98 1018.1
20260508035618 38 263 0.0 0.0 0.00 0.00 0.00 98 1018.1
20260508035115 38 263 0.0 0.0 0.00 0.00 0.00 98 1018.1
20260508034612 38 263 0.0 0.0 0.00 0.00 0.00 97 1018.1
20260508034109 38 264 0.0 0.0 0.00 0.00 0.00 97 1018.1
20260508033606 38 264 0.0 0.0 0.00 0.00 0.00 97 1018.2
20260508033105 39 263 0.0 0.0 0.00 0.00 0.00 97 1018.1
20260508032601 39 264 0.0 0.0 0.00 0.00 0.00 97 1018.0
20260508032059 39 264 0.0 0.0 0.00 0.00 0.00 96 1017.9
20260508031555 39 264 0.0 0.0 0.00 0.00 0.00 96 1018.0
20260508031051 39 280 0.0 0.0 0.00 0.00 0.00 96 1018.0
20260508030548 39 280 0.0 0.0 0.00 0.00 0.00 95 1017.9
20260508030046 39 280 0.0 0.0 0.00 0.00 0.00 94 1017.8
20260508025542 39 279 0.0 0.0 0.00 0.00 0.00 94 1017.6
20260508025039 40 279 0.0 0.0 0.00 0.00 0.00 93 1017.5
20260508024535 40 279 0.0 0.0 0.00 0.00 0.00 93 1017.4
20260508024032 41 279 0.0 0.0 0.00 0.00 0.00 93 1017.5
20260508023528 41 279 0.0 0.0 0.00 0.00 0.00 91 1017.5
20260508023026 41 279 0.0 0.0 0.00 0.00 0.00 91 1017.3
20260508022522 41 276 0.0 0.0 0.00 0.00 0.00 91 1017.4
20260508022019 41 286 0.0 0.0 0.00 0.00 0.00 91 1017.3
20260508021515 42 272 0.0 0.0 0.00 0.00 0.00 92 1017.1
20260508021011 42 289 0.0 0.0 0.00 0.00 0.00 92 1017.1
20260508020509 42 289 0.0 0.0 0.00 0.00 0.00 90 1017.0
20260508020006 42 289 0.0 0.0 0.00 0.00 0.00 90 1016.8
20260508015503 43 289 0.0 0.0 0.00 0.00 0.00 89 1016.7
20260508015000 43 294 0.0 0.0 0.00 0.00 0.00 89 1016.8
20260508014456 43 296 0.0 0.0 0.00 0.00 0.00 89 1016.8
20260508013952 44 296 0.0 0.0 0.00 0.00 0.00 87 1016.7
20260508013448 44 294 0.0 0.0 0.00 0.00 0.00 86 1016.6
20260508012946 44 294 0.0 0.0 0.00 0.00 0.00 84 1016.5
20260508012443 45 294 0.0 0.0 0.00 0.00 0.00 84 1016.5
20260508011940 46 325 0.0 0.0 0.00 0.00 0.00 84 1016.4
20260508011438 46 280 0.0 0.0 0.00 0.00 0.00 80 1016.4
20260508010936 46 282 0.0 0.0 0.00 0.00 0.00 83 1016.1
20260508010432 47 260 0.0 1.0 0.00 0.00 0.00 80 1016.2
20260508005929 47 268 0.0 0.0 0.00 0.00 0.00 81 1015.9
20260508005426 48 280 0.0 0.0 0.00 0.00 0.00 78 1015.9
20260508004923 48 280 0.0 0.0 0.00 0.00 0.00 78 1016.0
20260508004419 49 277 0.0 0.0 0.00 0.00 0.00 77 1015.8
20260508003916 50 268 0.0 0.0 0.00 0.00 0.00 75 1015.7
20260508003412 50 259 0.0 0.0 0.00 0.00 0.00 73 1015.9
20260508002910 51 25 0.0 0.0 0.00 0.00 0.00 72 1015.8
20260508002406 52 258 0.0 2.0 0.00 0.00 0.00 69 1015.8
20260508001902 51 279 0.0 1.0 0.00 0.00 0.00 73 1015.5
20260508001358 52 35 0.0 1.0 0.00 0.00 0.00 72 1015.6
20260508000855 53 300 0.0 1.0 0.00 0.00 0.00 69 1015.4
20260508000351 53 72 0.0 1.0 0.00 0.00 0.00 70 1015.4
20260507235848 54 297 1.0 2.0 0.00 0.00 0.00 66 1015.2
20260507235346 55 141 0.0 0.0 0.00 0.00 0.00 64 1015.3
20260507234843 55 342 0.0 1.0 0.00 0.00 0.00 61 1015.2
20260507234339 56 79 0.0 0.0 0.00 0.00 0.00 60 1015.1
20260507233835 58 71 0.0 2.0 0.00 0.00 0.00 47 1014.9
20260507233333 57 95 0.0 1.0 0.00 0.00 0.00 56 1014.9
20260507232831 56 69 0.0 1.0 0.00 0.00 0.00 48 1015.2
20260507232327 58 168 0.0 0.0 0.00 0.00 0.00 54 1015.1
20260507231825 59 93 1.0 1.0 0.00 0.00 0.00 50 1014.8
20260507231321 60 67 1.0 2.0 0.00 0.00 0.00 44 1015.1
20260507230817 60 139 2.0 4.0 0.00 0.00 0.00 40 1014.7
20260507230315 61 69 4.0 4.0 0.00 0.00 0.00 44 1014.7
20260507225815 62 133 1.0 1.0 0.00 0.00 0.00 40 1014.7
20260507225312 62 35 3.0 4.0 0.00 0.00 0.00 37 1014.5
20260507224807 61 56 2.0 7.0 0.00 0.00 0.00 40 1014.8
20260507224304 61 316 3.0 4.0 0.00 0.00 0.00 39 1014.6
20260507223800 62 58 4.0 8.0 0.00 0.00 0.00 38 1014.5
20260507223257 61 204 0.0 4.0 0.00 0.00 0.00 38 1014.4
20260507222754 61 96 2.0 6.0 0.00 0.00 0.00 37 1014.6
20260507222250 61 50 4.0 8.0 0.00 0.00 0.00 38 1014.5
20260507221748 61 76 3.0 6.0 0.00 0.00 0.00 38 1014.5
20260507221243 63 97 4.0 6.0 0.00 0.00 0.00 37 1014.4
20260507220740 64 60 3.0 10.0 0.00 0.00 0.00 39 1014.4
20260507220239 64 114 3.0 6.0 0.00 0.00 0.00 36 1014.4
20260507215734 64 141 3.0 3.0 0.00 0.00 0.00 36 1014.2
20260507215232 64 72 3.0 6.0 0.00 0.00 0.00 37 1014.3
20260507214729 64 26 2.0 6.0 0.00 0.00 0.00 37 1014.2
20260507214226 64 48 4.0 4.0 0.00 0.00 0.00 40 1014.0
20260507213721 63 135 4.0 7.0 0.00 0.00 0.00 40 1014.0
20260507213219 62 59 2.0 3.0 0.00 0.00 0.00 45 1014.0
20260507212715 63 84 2.0 10.0 0.00 0.00 0.00 37 1014.0
20260507212212 64 94 1.0 3.0 0.00 0.00 0.00 37 1013.9
20260507211708 64 123 1.0 6.0 0.00 0.00 0.00 36 1013.8
20260507211204 64 62 2.0 3.0 0.00 0.00 0.00 38 1013.8
20260507210701 62 53 2.0 7.0 0.00 0.00 0.00 43 1013.8
20260507210158 61 52 4.0 9.0 0.00 0.00 0.00 40 1013.8
20260507205654 61 65 3.0 4.0 0.00 0.00 0.00 48 1013.8
20260507205151 60 318 2.0 3.0 0.00 0.00 0.00 47 1013.7
20260507204647 61 82 1.0 2.0 0.00 0.00 0.00 42 1013.7
20260507204145 62 319 2.0 9.0 0.00 0.00 0.00 40 1013.6
20260507203643 61 49 3.0 6.0 0.00 0.00 0.00 40 1013.8
20260507203140 61 282 6.0 10.0 0.00 0.00 0.00 40 1013.6
20260507202636 62 53 5.0 7.0 0.00 0.00 0.00 43 1013.7
20260507202132 61 70 2.0 6.0 0.00 0.00 0.00 43 1013.7
20260507201627 62 331 2.0 3.0 0.00 0.00 0.00 41 1013.8
20260507201125 62 62 6.0 13.0 0.00 0.00 0.00 42 1013.7
20260507200620 63 249 2.0 8.0 0.00 0.00 0.00 41 1013.8
20260507200116 63 64 4.0 4.0 0.00 0.00 0.00 43 1013.8
20260507195614 65 92 5.0 6.0 0.00 0.00 0.00 46 1014.0
20260507195111 62 63 2.0 3.0 0.00 0.00 0.00 45 1014.0
20260507194607 64 65 3.0 9.0 0.00 0.00 0.00 44 1014.1
20260507194103 64 85 1.0 3.0 0.00 0.00 0.00 44 1013.9
20260507193600 64 28 4.0 8.0 0.00 0.00 0.00 41 1014.3
20260507193057 64 10 4.0 9.0 0.00 0.00 0.00 41 1014.3
20260507192553 63 63 5.0 6.0 0.00 0.00 0.00 44 1014.4
20260507192050 63 36 3.0 7.0 0.00 0.00 0.00 45 1014.3
20260507191546 63 76 2.0 7.0 0.00 0.00 0.00 42 1014.2
20260507191043 64 111 1.0 6.0 0.00 0.00 0.00 45 1014.4
20260507190540 63 210 4.0 9.0 0.00 0.00 0.00 40 1014.5
20260507190039 64 42 3.0 7.0 0.00 0.00 0.00 44 1014.3
20260507185537 64 90 1.0 7.0 0.00 0.00 0.00 47 1014.4
20260507185033 64 27 6.0 7.0 0.00 0.00 0.00 47 1014.6
20260507184532 63 55 6.0 11.0 0.00 0.00 0.00 42 1014.6
20260507184029 61 65 3.0 6.0 0.00 0.00 0.00 52 1014.6
20260507183525 62 48 5.0 6.0 0.00 0.00 0.00 44 1014.6
20260507183022 64 11 4.0 6.0 0.00 0.00 0.00 45 1014.5
20260507182518 64 94 4.0 4.0 0.00 0.00 0.00 45 1014.4
20260507182014 63 53 3.0 6.0 0.00 0.00 0.00 44 1014.4
20260507181512 62 90 6.0 9.0 0.00 0.00 0.00 46 1014.6
20260507181008 62 262 0.0 3.0 0.00 0.00 0.00 43 1014.8
20260507180504 61 83 1.0 2.0 0.00 0.00 0.00 48 1014.6
20260507180000 59 71 5.0 8.0 0.00 0.00 0.00 48 1014.6
20260507175457 60 273 1.0 13.0 0.00 0.00 0.00 46 1014.8
20260507174955 63 203 2.0 3.0 0.00 0.00 0.00 43 1014.6
20260507174452 62 80 9.0 9.0 0.00 0.00 0.00 44 1014.6
20260507173949 60 67 2.0 6.0 0.00 0.00 0.00 46 1014.8
20260507173446 62 88 3.0 3.0 0.00 0.00 0.00 48 1015.1
20260507172943 62 41 0.0 3.0 0.00 0.00 0.00 45 1015.2
20260507172439 60 49 4.0 8.0 0.00 0.00 0.00 49 1015.1
20260507171936 62 88 3.0 6.0 0.00 0.00 0.00 47 1015.2
20260507171432 61 209 1.0 8.0 0.00 0.00 0.00 45 1015.4
20260507170930 61 36 2.0 7.0 0.00 0.00 0.00 47 1015.1
20260507170426 61 89 1.0 2.0 0.00 0.00 0.00 47 1015.2
20260507165922 59 27 2.0 2.0 0.00 0.00 0.00 56 1015.3
20260507165418 60 77 3.0 6.0 0.00 0.00 0.00 50 1015.4
20260507164914 63 101 2.0 4.0 0.00 0.00 0.00 50 1015.3
20260507164411 61 122 2.0 4.0 0.00 0.00 0.00 51 1015.2
20260507163908 60 4 1.0 4.0 0.00 0.00 0.00 48 1015.3
20260507163406 58 64 2.0 3.0 0.00 0.00 0.00 53 1015.6
20260507162902 58 4 4.0 7.0 0.00 0.00 0.00 52 1015.7
20260507162357 61 79 7.0 8.0 0.00 0.00 0.00 53 1015.7
20260507161855 61 33 2.0 4.0 0.00 0.00 0.00 54 1015.8
20260507161351 59 11 2.0 4.0 0.00 0.00 0.00 52 1015.8
20260507160848 58 35 3.0 8.0 0.00 0.00 0.00 52 1015.9
20260507160343 61 132 3.0 4.0 0.00 0.00 0.00 51 1015.9
20260507155840 60 227 0.0 0.0 0.00 0.00 0.00 48 1015.9
20260507155336 59 269 0.0 3.0 0.00 0.00 0.00 49 1015.8
20260507154833 58 179 2.0 4.0 0.00 0.00 0.00 52 1015.8
20260507154330 58 351 1.0 2.0 0.00 0.00 0.00 52 1016.1
20260507153827 59 45 2.0 2.0 0.00 0.00 0.00 60 1015.9
20260507153324 58 315 1.0 2.0 0.00 0.00 0.00 57 1015.8
20260507152820 58 351 0.0 3.0 0.00 0.00 0.00 51 1016.0
20260507152316 56 302 2.0 8.0 0.00 0.00 0.00 55 1016.2
20260507151813 56 17 1.0 8.0 0.00 0.00 0.00 60 1016.2
20260507151309 57 6 2.0 3.0 0.00 0.00 0.00 55 1016.0
20260507150806 57 292 0.0 1.0 0.00 0.00 0.00 55 1016.2
20260507150303 58 272 2.0 4.0 0.00 0.00 0.00 53 1016.1
20260507145759 59 86 1.0 1.0 0.00 0.00 0.00 56 1016.1
20260507145255 58 81 1.0 1.0 0.00 0.00 0.00 60 1016.2
20260507144752 57 29 1.0 2.0 0.00 0.00 0.00 56 1016.3
20260507144250 55 20 0.0 1.0 0.00 0.00 0.00 61 1016.2
20260507143746 57 55 4.0 4.0 0.00 0.00 0.00 58 1016.1
20260507143244 57 119 2.0 3.0 0.00 0.00 0.00 58 1016.1
20260507142739 58 27 0.0 2.0 0.00 0.00 0.00 57 1016.2
20260507142236 57 310 0.0 1.0 0.00 0.00 0.00 63 1016.5
20260507141732 55 252 0.0 2.0 0.00 0.00 0.00 64 1016.5
20260507141230 54 354 0.0 2.0 0.00 0.00 0.00 68 1016.7
20260507140725 54 21 0.0 1.0 0.00 0.00 0.00 73 1016.7
20260507140224 54 298 0.0 1.0 0.00 0.00 0.00 72 1016.7
20260507135720 55 5 0.0 3.0 0.00 0.00 0.00 66 1016.8
20260507135218 54 287 0.0 0.0 0.00 0.00 0.00 81 1016.9
20260507134714 53 72 2.0 2.0 0.00 0.00 0.00 82 1016.9
20260507134210 53 69 1.0 2.0 0.00 0.00 0.00 80 1016.8
20260507133706 53 298 0.0 2.0 0.00 0.00 0.00 80 1017.0
20260507133203 54 102 0.0 0.0 0.00 0.00 0.00 83 1017.0
20260507132701 54 108 0.0 0.0 0.00 0.00 0.00 83 1017.1
20260507132157 53 60 0.0 0.0 0.00 0.00 0.00 85 1017.1
20260507131654 53 3 0.0 0.0 0.00 0.00 0.00 86 1016.9
20260507131151 52 55 0.0 0.0 0.00 0.00 0.00 87 1017.0
20260507130647 52 60 0.0 0.0 0.00 0.00 0.00 87 1017.1
20260507130146 51 66 0.0 1.0 0.00 0.00 0.00 88 1017.0
20260507125644 51 74 0.0 1.0 0.00 0.00 0.00 91 1017.2
20260507125142 51 79 0.0 1.0 0.00 0.00 0.00 94 1017.1
20260507124637 51 32 0.0 0.0 0.00 0.00 0.00 93 1017.1
20260507124135 51 68 0.0 1.0 0.00 0.00 0.00 95 1016.9
20260507123633 50 52 0.0 0.0 0.00 0.00 0.00 96 1017.0
20260507123130 50 95 0.0 1.0 0.00 0.00 0.00 98 1017.2
20260507122625 50 86 0.0 0.0 0.00 0.00 0.00 99 1017.2
20260507122121 50 86 0.0 0.0 0.00 0.00 0.00 99 1017.2
20260507121618 50 86 0.0 0.0 0.00 0.00 0.00 99 1017.1
20260507121114 50 28 0.0 0.0 0.00 0.00 0.00 99 1017.1
20260507120610 50 89 0.0 0.0 0.00 0.00 0.00 99 1017.2
20260507120107 50 91 0.0 0.0 0.00 0.00 0.00 99 1017.3
20260507115603 50 340 0.0 0.0 0.00 0.00 0.00 99 1017.2
20260507115059 50 12 0.0 0.0 0.00 0.00 0.00 99 1017.3
20260507114555 50 23 0.0 0.0 0.00 0.00 0.00 99 1017.3
20260507114052 50 6 0.0 0.0 0.00 0.00 0.00 99 1017.2
20260507113549 49 7 0.0 0.0 0.00 0.00 0.00 99 1017.2
20260507113046 49 7 0.0 0.0 0.00 0.00 0.00 99 1017.0
20260507112544 49 6 0.0 0.0 0.00 0.00 0.00 99 1016.9
20260507112041 49 31 0.0 0.0 0.00 0.00 0.00 99 1016.8
20260507111538 49 72 0.0 0.0 0.00 0.00 0.00 99 1016.8
20260507111034 49 61 0.0 0.0 0.00 0.00 0.00 99 1016.6
20260507110531 49 61 0.0 0.0 0.00 0.00 0.00 99 1016.5
20260507110027 49 50 0.0 0.0 0.00 0.00 0.00 99 1016.7
20260507105525 49 251 0.0 0.0 0.00 0.00 0.00 99 1016.3
20260507105020 49 251 0.0 0.0 0.00 0.00 0.00 99 1016.5
20260507104518 49 250 0.0 0.0 0.00 0.00 0.00 99 1016.3
20260507104015 49 250 0.0 0.0 0.00 0.00 0.00 99 1016.4
20260507103510 49 250 0.0 0.0 0.00 0.00 0.00 99 1016.3
20260507103007 49 251 0.0 0.0 0.00 0.00 0.00 99 1016.1
20260507102504 49 252 0.0 1.0 0.00 0.00 0.00 99 1016.0
20260507102000 49 270 0.0 1.0 0.00 0.00 0.00 99 1016.2
20260507101455 49 322 0.0 0.0 0.00 0.00 0.00 99 1016.3
20260507100952 49 351 0.0 0.0 0.00 0.00 0.00 99 1016.2
20260507100449 49 6 0.0 0.0 0.00 0.00 0.00 99 1016.3
20260507095948 49 6 0.0 0.0 0.00 0.00 0.00 99 1016.5
20260507095445 49 6 0.0 0.0 0.00 0.00 0.00 99 1016.3
20260507094941 49 6 0.0 0.0 0.00 0.00 0.00 99 1016.3
20260507094437 49 6 0.0 0.0 0.00 0.00 0.00 99 1016.5
20260507093935 49 6 0.0 0.0 0.00 0.00 0.00 99 1016.4
20260507093432 49 6 0.0 0.0 0.00 0.00 0.00 99 1016.4
20260507092931 49 6 0.0 0.0 0.00 0.00 0.00 99 1016.4
20260507092427 49 6 0.0 0.0 0.00 0.00 0.00 99 1016.3
20260507091923 49 1 0.0 0.0 0.00 0.00 0.00 99 1016.2
20260507091420 49 1 0.0 0.0 0.00 0.00 0.00 99 1016.1
20260507090915 49 2 0.0 0.0 0.00 0.00 0.00 99 1016.1
20260507090412 49 352 0.0 0.0 0.00 0.00 0.00 99 1016.2
20260507085909 49 349 0.0 0.0 0.00 0.00 0.00 99 1015.9
20260507085406 49 69 0.0 0.0 0.00 0.00 0.00 99 1016.0
20260507084903 49 65 0.0 0.0 0.00 0.00 0.00 99 1016.0
20260507084400 49 84 0.0 0.0 0.00 0.00 0.00 99 1016.0
20260507083857 49 75 0.0 0.0 0.00 0.00 0.00 99 1016.0
20260507083353 49 74 0.0 0.0 0.00 0.00 0.00 99 1015.8